Regional Weather Roundup
Issued by NWS

Home | Current Version | Previous Version | Graphics & Text | Print | Product List | Glossary On
Versions: 1 2 3 4 5 6 7 8 9 10 11 12 13 14 15 16 17 18 19 20 21 22 23 24 25 26 27 28 29 30 31 32 33 34 35 36 37 38 39 40 41 42 43 44 45 46 47 48 49 50
727
ASUS43 KOAX 301110
RWRNE

WEATHER ROUNDUP FOR NEBRASKA
NATIONAL WEATHER SERVICE OMAHA NE
600 AM CDT SAT JUL 30 2016

NOTES: SATELLITE DATA IS BEING USED TO AUGMENT CLOUD COVER ABOVE
       12000 FEET.
       "FAIR" INDICATES FEW OR NO CLOUDS BELOW 12,000 FEET WITH NO
       SIGNIFICANT WEATHER AND/OR OBSTRUCTIONS TO VISIBILITY.

  * THESE STATIONS DO NOT REPORT WEATHER SUCH AS RAIN...SNOW OR FOG.

NEZ001>004-019>022-054>056-301200-
NEBRASKA PANHANDLE

CITY           SKY/WX    TMP DP  RH WIND       PRES   REMARKS
SCOTTSBLUFF    CLEAR     60  57  89 W3        30.02S
ALLIANCE       CLOUDY    55  53  93 CALM      30.02F
CHADRON        CLEAR     58  55  90 SE3       29.97F
KIMBALL        CLOUDY    63  62  97 S8        30.08S
SIDNEY         PTCLDY    66  60  81 N6        30.03F
$$

NEZ057>060-069>072-079>082-301200-
SOUTHWEST NEBRASKA

CITY           SKY/WX    TMP DP  RH WIND       PRES   REMARKS
NORTH PLATTE   CLEAR     62  60  93 E6        30.00F
IMPERIAL       CLOUDY    62  60  93 S7        30.02R
LEXINGTON      CLEAR     65  62  91 SE6       30.00F
MCCOOK         CLEAR     65  63  93 SE7       30.00S
OGALLALA       CLEAR     65  62  89 CALM      30.01S
$$

NEZ005>010-023>029-035>040-094-301200-
NORTH CENTRAL NEBRASKA

CITY           SKY/WX    TMP DP  RH WIND       PRES   REMARKS
VALENTINE      CLOUDY    65  60  84 SE13G21   30.00F
AINSWORTH      CLOUDY    60  59  95 E17       30.04R
BROKEN BOW     CLOUDY    64  63  96 SE3       30.01F
O`NEILL        CLOUDY    64  60  88 S5        30.03R
ORD            TSTM      60  56  86 SW8       30.02F FOG
THEDFORD       CLEAR     63  62  96 E5        30.02R
$$

NEZ041-046>049-061>064-073>077-083>087-301200-
SOUTH CENTRAL NEBRASKA

CITY           SKY/WX    TMP DP  RH WIND       PRES   REMARKS
GRAND ISLAND   LGT RAIN  64  61  90 S10       30.01F
AURORA         PTCLDY    61  61  99 SE7       30.01F
HASTINGS       MOCLDY    66  60  81 SE8       30.02F
HEBRON         PTCLDY    60  59  94 CALM      30.02S
HOLDREGE       CLEAR     63  61  94 S5        30.01S
KEARNEY *      MOCLDY    64  63  94 SE6       30.01F
YORK           CLEAR     61  59  94 SE5       30.03S
$$

NEZ011>018-030>034-042>045-301200-
NORTHEAST NEBRASKA

CITY           SKY/WX    TMP DP  RH WIND       PRES   REMARKS
NORFOLK        PTCLDY    58  56  93 CALM      30.02F
ALBION         MOCLDY    61  59  92 SE3       30.02F FOG
BLAIR          CLEAR     61  60  95 CALM      30.01F
FREMONT        CLEAR     61  60  94 CALM      30.02F
TEKAMAH        FOG       56  55  97 CALM      30.01F VSB 1/2
WAYNE          MOCLDY    54  53  98 CALM      30.03S FOG
$$

NEZ050>053-065>068-078-088>093-301200-
SOUTHEAST NEBRASKA

CITY           SKY/WX    TMP DP  RH WIND       PRES   REMARKS
LINCOLN        CLEAR     61  59  93 CALM      30.02F
OMAHA EPPLEY   PTCLDY    62  59  90 CALM      30.01F
BEATRICE       CLEAR     61  60  96 CALM      30.02F
FALLS CITY     CLEAR     59  59 100 N3        30.01F
NEBRASKA CITY  PTCLDY    61  61 100 CALM      30.02S FOG
PLATTSMOUTH      N/A     61  60  99 CALM      30.02S FOG
$$

NEZ044-045-051>053-067-301200-
OMAHA AREA

CITY           SKY/WX    TMP DP  RH WIND       PRES   REMARKS
OMAHA EPPLEY   PTCLDY    62  59  90 CALM      30.01F
BLAIR          CLEAR     61  60  95 CALM      30.01F
FREMONT        CLEAR     61  60  94 CALM      30.02F
MILLARD        CLEAR     62  61  96 CALM      30.01F
OFFUTT AFB     CLEAR     59  59 100 NE2       30.01F
PLATTSMOUTH      N/A     61  60  99 CALM      30.02S FOG
WAHOO          FOG       59  58  96 CALM      30.01F VSB 1/2
$$




USA.gov is the U.S. government's official web portal to all federal, state and local government web resources and services.